Regional Weather Roundup
Issued by NWS

Home | Current Version | Previous Version | Text Only | Print | Product List | Glossary Off
Versions: 1 2 3 4 5 6 7 8 9 10 11 12 13 14 15 16 17 18 19 20 21 22 23 24 25 26 27 28

000
ASUS45 KCYS 210410
RWRWY

WYOMING REGIONAL WEATHER ROUNDUP
NATIONAL WEATHER SERVICE CHEYENNE WY
900 PM MST SAT JAN 20 2018

NOTE:  "FAIR" INDICATES FEW OR NO CLOUDS BELOW 12,000 FEET
WITH NO SIGNIFICANT WEATHER AND/OR OBSTRUCTIONS TO VISIBILITY.

WYZ001-210500-
YELLOWSTONE NATIONAL PARK

CITY           SKY/WX    TMP DP  RH WIND       PRES   REMARKS
LK YELLOWSTONE   N/A      0  -3  87 CALM      29.91R
W YELLOWSTONE  NOT AVBL

$$
WYZ002>013-054>058-071-098>099-210500-
NORTHERN WYOMING

CITY           SKY/WX    TMP DP  RH WIND       PRES   REMARKS
JACKSON        CLOUDY    20  13  74 N15       29.88F WCI   6
CODY           FAIR      25  22  88 S5        29.95R WCI  19
GREYBULL       MOCLDY    27  22  81 CALM      29.94S
WORLAND        CLOUDY    27  26  96 S8        29.93S WCI  19
SHERIDAN       FAIR      27  19  72 CALM      29.95F
BUFFALO        CLOUDY    26  14  60 NW5       29.92F WCI  20
GILLETTE       CLOUDY    25  22  88 SW5       29.94S WCI  19
HULETT         CLOUDY    30  27  86 MISG      29.94F
NEWCASTLE      LGT SNOW  28  28 100 W5        29.95R WCI  23

$$
WYZ014>020-022>026-101>103-210500-
CENTRAL WYOMING

CITY           SKY/WX    TMP DP  RH WIND       PRES   REMARKS
BIG PINEY      LGT SNOW  22  16  78 N15       29.80R WCI   9
PINEDALE       FLURRIES  21  18  86 W14       29.80S WCI   8
DUBOIS         CLOUDY    21  18  86 SE9       29.82R WCI  11
LANDER         LGT SNOW  23  22  96 W5        29.88R FOG     WCI  17
RIVERTON       LGT SNOW  24  20  84 N3        29.89R FOG
CASPER         LGT SNOW  23  22  96 NE12      29.88S VSB 3/4 WCI  12
DOUGLAS        LGT SNOW  26  25  96 NE6       29.89F VSB 1   WCI  19

$$
WYZ021-027>030-104>119-210500-
SOUTHERN WYOMING

CITY           SKY/WX    TMP DP  RH WIND       PRES   REMARKS
EVANSTON       CLOUDY    19  18  95 N14       29.83R FOG     WCI   6
FORT BRIDGER   LGT SNOW  21  21 100 W10       29.85R WCI  10
ROCK SPRINGS   LGT SNOW  21  18  88 NE6       29.81R FOG     WCI  13
DIXON          LGT SNOW  27  25  94 W12       29.76R WCI  16
RAWLINS        HVY SNOW  20  18  92 N20       29.73F VSB 1/4 WCI   4
SARATOGA       FLURRIES  25  25 100 W14       29.66F WCI  13
LARAMIE        LGT SNOW  24  23  96 E5        29.72S FOG     WCI  18
CHEYENNE       CLOUDY    27  27 100 E10       29.79S FOG     WCI  17
TORRINGTON     LGT SNOW  29  29 100 NE12      29.87S VSB 1   WCI  19

$$




USA.gov is the U.S. government's official web portal to all federal, state and local government web resources and services.